Regional Weather Roundup
Issued by NWS

Home | Current Version | Previous Version | Text Only | Print | Product List | Glossary On
Versions: 1 2 3 4 5 6 7 8 9 10 11 12 13 14 15 16 17 18 19 20 21 22 23 24 25 26 27 28
000
ASUS45 KSLC 241410
RWRUT

UTAH REGIONAL WEATHER ROUNDUP
NATIONAL WEATHER SERVICE SALT LAKE CITY UT
700 AM MST SAT FEB 24 2018

UTZ001>011-023>025-241500-

NORTHERN UTAH

CITY           SKY/WX    TMP DP  RH WIND       PRES   REMARKS
BRIGHAM CITY   CLOUDY    24  13  62 SW9G18    30.15R WCI  14
HILL AFB       CLOUDY    17  15  92 S5        30.12S WCI  10
LOGAN          CLOUDY    14   6  70 NW3       30.12S
OGDEN          CLOUDY    19  14  81 S6        30.13S WCI  11
SALT LAKE CITY MOCLDY    18  13  80 SE9       30.16S WCI   7
WENDOVER       MOCLDY    19   7  59 NE6       30.15R WCI  11
HEBER CITY     CLOUDY     3  -2  78 CALM      30.09S
WEST JORDAN    CLOUDY    16  14  92 S10       30.15S WCI   4

$$

UTZ011>015-024>027-241500-

CENTRAL/NORTHEAST UTAH

CITY           SKY/WX    TMP DP  RH WIND       PRES   REMARKS
PROVO AIRPORT  MOCLDY     7   5  91 E3        30.19S
MOAB/CANYONLAN CLEAR     17   7  64 W8        30.09R WCI   7
DELTA          MOCLDY    -4  -8  84 NE6       30.18S WCI -16
PRICE          CLEAR     12   1  61 NW8       30.01S WCI   0
RICHFIELD      CLEAR      9   5  85 CALM      30.16S
VERNAL         CLOUDY    12   9  87 NW3       30.02R

$$

UTZ013>016-019>022-027-241500-

SOUTHERN UTAH

CITY           SKY/WX    TMP DP  RH WIND       PRES   REMARKS
BRYCE CANYON   PTCLDY     0  -4  83 W13       30.05R WCI -18
CEDAR CITY     MOCLDY     2  -1  88 CALM      30.14S
MILFORD        PTCLDY     0  -4  83 S8        30.17S WCI -14
ST GEORGE      MOSUNNY   24  19  81 SE5       30.28R WCI  18
HANKSVILLE     CLEAR     12   5  73 SE3       30.14R
KANAB          CLEAR      9   3  78 N7        30.23R WCI  -3
BLANDING         N/A      7   5  89 NW7       30.12S WCI  -4

$$

REGIONAL REPORTS     COLORADO/ARIZONA

CITY           SKY/WX    TMP DP  RH WIND       PRES   REMARKS
CRAIG, CO      CLEAR      1  -3  83 CALM      29.98R
GRAND JUNCTION MOCLDY    20  13  74 CALM      30.06R
RIFLE, CO      CLOUDY    20  15  81 W6        30.00R WCI  12
MONTROSE, CO   CLEAR      7   4  87 S7        30.06R WCI  -5
CORTEZ, CO     CLEAR      6   3  87 NE7       30.06R WCI  -6
COLORADO CITY    N/A     10   7  85 SE3       30.21S
PAGE, AZ       PTCLDY    25   7  46 W5        30.16R WCI  19
GRAND CANYON   PTCLDY   -15 -20  78 CALM      30.12R
KINGMAN, AZ    CLEAR     21  17  84 SE10      30.25R WCI  10
FLAGSTAFF, AZ  PTCLDY    -2  -5  87 CALM      30.08R

$$

REGIONAL REPORTS    NEVADA/IDAHO/WYOMING

CITY           SKY/WX    TMP DP  RH WIND       PRES   REMARKS
LAS VEGAS, NV  CLEAR     33   7  33 NW6       30.29R WCI  28
ELY, NY        CLEAR     -5 -10  79 S13       30.14S WCI -24
ELKO, NV       CLOUDY    16   9  74 W8        30.14F WCI   5
POCATELLO, ID  PTCLDY    20   8  60 SW14      30.05F WCI   7
BURLEY, ID     CLOUDY    22  11  62 SW15      30.06F WCI   9
EVANSTON, WY   CLOUDY     7   4  87 SW14      29.96R WCI -10
ROCK SPRINGS,  MOCLDY     8   1  73 W23       29.91R WCI -13

$$




USA.gov is the U.S. government's official web portal to all federal, state and local government web resources and services.